7 * 24
多渠道服务支持
YAOGAN 4(遥感四号)是中国于2008年12月1日发射的遥感卫星。作为中国遥感系列卫星的重要成员,它主要用于国土测绘、环境监测、灾害评估等领域,搭载了先进的光学遥感载荷,可获取高分辨率地面影像,为国民经济建设和科学研究提供数据支撑,推动了中国遥感应用体系的发展,提升了空间对地观测能力,在资源调查、防灾减灾等方面发挥了重要作用。
中国
(CN)
| 数据来源 | 国际轨道数据 |
| 星历时间: | 2026-09-11T02:33:39+0800 12小时前 查看轨道信息 |
| 半长轴: | 6996.952km |
| 偏心率: | 0.00149 |
| 轨道倾角: | 97.932° |
| 近地点辐角 | 146.797° |
| 升交点赤经 | 186.664° |
| 平近点角 | 213.418° |
| 近地点: | 608.389km |
| 远地点: | 629.241km |
| 周期: | 97.078分钟 |
| 每日圈数: | 14.833359 |